DW3588 Weather Reports


Display with metric or nautical units.
time (UTC)temp
F
wind
direction
speed
MPH
gust
MPH
rain 1hr
in
rain 24hr
in
rain mn
in
humidity
%
barometer
mb
20260504034454 58 271 7.0 14.0 0.00 0.00 0.00 67 1012.2
20260504033952 58 221 7.0 16.0 0.00 0.00 0.00 66 1012.1
20260504033451 59 280 7.0 16.0 0.00 0.00 0.00 66 1012.2
20260504032948 59 264 8.0 15.0 0.00 0.00 0.00 66 1012.2
20260504032448 59 227 7.0 14.0 0.00 0.00 0.00 66 1012.1
20260504031948 59 272 6.0 13.0 0.00 0.00 0.00 66 1012.1
20260504031446 59 268 7.0 15.0 0.00 0.00 0.00 65 1012.1
20260504030946 60 267 8.0 15.0 0.00 0.00 0.00 65 1012.0
20260504030923 60 294 9.0 17.0 0.00 0.00 0.00 64 1012.0
20260504025946 60 296 9.0 17.0 0.00 0.00 0.00 63 1011.9
20260504025446 60 275 9.0 15.0 0.00 0.00 0.00 63 1011.9
20260504025424 60 260 9.0 16.0 0.00 0.00 0.00 63 1011.7
20260504024447 61 254 9.0 16.0 0.00 0.00 0.00 62 1011.7
20260504023946 61 269 10.0 18.0 0.00 0.00 0.00 62 1011.5
20260504023428 61 262 9.0 18.0 0.00 0.00 0.00 62 1011.5
20260504022927 61 243 8.0 15.0 0.00 0.00 0.00 61 1011.4
20260504022427 62 243 8.0 17.0 0.00 0.00 0.00 61 1011.5
20260504021928 62 224 9.0 17.0 0.00 0.00 0.00 60 1011.4
20260504021428 62 297 9.0 15.0 0.00 0.00 0.00 60 1011.4
20260504020922 63 283 9.0 15.0 0.00 0.00 0.00 59 1011.4
20260504020422 63 309 9.0 16.0 0.00 0.00 0.00 59 1011.3
20260504015922 63 249 9.0 16.0 0.00 0.00 0.00 58 1011.3
20260504015645 64 257 9.0 16.0 0.00 0.00 0.00 58 1011.3
20260504015145 65 242 8.0 16.0 0.00 0.00 0.00 57 1011.2
20260504014420 65 257 7.0 13.0 0.00 0.00 0.00 57 1011.3
20260504014138 65 232 7.0 16.0 0.00 0.00 0.00 56 1011.3
20260504013416 65 236 8.0 16.0 0.00 0.00 0.00 55 1011.3
20260504012914 66 222 9.0 17.0 0.00 0.00 0.00 54 1011.4
20260504012411 66 267 7.0 17.0 0.00 0.00 0.00 54 1011.4
20260504011909 66 252 7.0 12.0 0.00 0.00 0.00 54 1011.3
20260504011407 66 257 7.0 14.0 0.00 0.00 0.00 54 1011.3
20260504011127 67 244 8.0 14.0 0.00 0.00 0.00 55 1011.4
20260504010405 67 284 8.0 16.0 0.00 0.00 0.00 55 1011.4
20260504005905 67 228 7.0 16.0 0.00 0.00 0.00 55 1011.3
20260504005625 66 244 7.0 16.0 0.00 0.00 0.00 55 1011.3
20260504004904 66 228 8.0 16.0 0.00 0.00 0.00 55 1011.3
20260504004402 66 223 8.0 16.0 0.00 0.00 0.00 55 1011.3
20260504003901 66 266 8.0 16.0 0.00 0.00 0.00 55 1011.3
20260504003624 67 235 8.0 15.0 0.00 0.00 0.00 54 1011.3
20260504002901 68 254 8.0 15.0 0.00 0.00 0.00 53 1011.2
20260504002627 68 277 8.0 15.0 0.00 0.00 0.00 53 1011.1
20260504002120 68 266 7.0 16.0 0.00 0.00 0.00 54 1011.1
20260504001358 68 277 8.0 18.0 0.00 0.00 0.00 54 1011.1
20260504000858 69 264 9.0 18.0 0.00 0.00 0.00 52 1011.1
20260504000618 69 240 9.0 17.0 0.00 0.00 0.00 52 1011.1
20260503235856 69 248 7.0 17.0 0.00 0.00 0.00 53 1011.0
20260503235356 69 288 7.0 13.0 0.00 0.00 0.00 53 1010.9
20260503234854 69 242 7.0 14.0 0.00 0.00 0.00 51 1011.0
20260503234353 70 218 7.0 14.0 0.00 0.00 0.00 50 1010.9
20260503233851 70 236 7.0 14.0 0.00 0.00 0.00 51 1010.9
20260503233606 70 280 6.0 14.0 0.00 0.00 0.00 51 1010.8
20260503233111 69 200 6.0 12.0 0.00 0.00 0.00 52 1010.8
20260503232350 69 240 6.0 12.0 0.00 0.00 0.00 52 1010.8
20260503232108 69 226 6.0 13.0 0.00 0.00 0.00 53 1010.9
20260503231348 69 257 6.0 15.0 0.00 0.00 0.00 52 1010.9
20260503230846 70 178 6.0 15.0 0.00 0.00 0.00 51 1010.9
20260503230344 70 281 6.0 13.0 0.00 0.00 0.00 51 1010.8
20260503225843 71 208 7.0 15.0 0.00 0.00 0.00 49 1010.8
20260503225830 71 223 7.0 15.0 0.00 0.00 0.00 50 1010.9
20260503224833 71 291 6.0 13.0 0.00 0.00 0.00 51 1010.9
20260503224333 70 235 6.0 13.0 0.00 0.00 0.00 51 1011.0
20260503223836 70 223 6.0 12.0 0.00 0.00 0.00 51 1011.1
20260503223329 70 252 6.0 13.0 0.00 0.00 0.00 52 1011.1
20260503223049 69 236 5.0 13.0 0.00 0.00 0.00 52 1011.1
20260503222329 70 243 5.0 12.0 0.00 0.00 0.00 51 1011.2
20260503221827 69 228 6.0 12.0 0.00 0.00 0.00 52 1011.2
20260503221546 69 214 6.0 13.0 0.00 0.00 0.00 52 1011.2
20260503220826 70 238 6.0 13.0 0.00 0.00 0.00 51 1011.4
20260503220324 71 207 6.0 13.0 0.00 0.00 0.00 51 1011.2
20260503220041 70 242 6.0 13.0 0.00 0.00 0.00 53 1011.3
20260503215543 69 189 7.0 11.0 0.00 0.00 0.00 52 1011.5
20260503214815 70 247 6.0 12.0 0.00 0.00 0.00 51 1011.6
20260503214314 70 280 6.0 12.0 0.00 0.00 0.00 50 1011.6
20260503213813 71 244 6.0 12.0 0.00 0.00 0.00 50 1011.5
20260503213313 70 223 6.0 14.0 0.00 0.00 0.00 50 1011.5
20260503213028 71 210 5.0 14.0 0.00 0.00 0.00 50 1011.6
20260503212307 71 229 5.0 11.0 0.00 0.00 0.00 49 1011.4
20260503212031 71 216 6.0 12.0 0.00 0.00 0.00 49 1011.4
20260503211308 69 232 7.0 12.0 0.00 0.00 0.00 51 1011.5
20260503210807 69 242 7.0 12.0 0.00 0.00 0.00 51 1011.5
20260503210304 70 248 7.0 12.0 0.00 0.00 0.00 50 1011.6
20260503205807 70 236 6.0 11.0 0.00 0.00 0.00 50 1011.6
20260503205741 71 319 6.0 11.0 0.00 0.00 0.00 50 1011.5
20260503204803 72 252 7.0 14.0 0.00 0.00 0.00 49 1011.4
20260503204302 73 206 7.0 14.0 0.00 0.00 0.00 48 1011.4
20260503203801 73 174 7.0 14.0 0.00 0.00 0.00 48 1011.3
20260503203300 71 241 7.0 14.0 0.00 0.00 0.00 49 1011.4
20260503202800 71 248 6.0 13.0 0.00 0.00 0.00 49 1011.5
20260503202251 72 222 6.0 13.0 0.00 0.00 0.00 49 1011.5
20260503201751 73 238 6.0 14.0 0.00 0.00 0.00 48 1011.5
20260503201251 74 225 6.0 14.0 0.00 0.00 0.00 48 1011.5
20260503200751 73 216 6.0 13.0 0.00 0.00 0.00 49 1011.6
20260503200251 71 234 6.0 14.0 0.00 0.00 0.00 51 1011.5
20260503195750 71 267 6.0 16.0 0.00 0.00 0.00 50 1011.7
20260503195248 71 267 4.0 16.0 0.00 0.00 0.00 50 1011.5
20260503194750 73 186 5.0 12.0 0.00 0.00 0.00 49 1011.8
20260503194248 72 281 5.0 12.0 0.00 0.00 0.00 50 1011.8
20260503193746 70 238 6.0 11.0 0.00 0.00 0.00 52 1011.9
20260503193243 71 259 7.0 12.0 0.00 0.00 0.00 51 1012.0
20260503192740 71 247 7.0 15.0 0.00 0.00 0.00 51 1011.9
20260503192239 71 198 7.0 15.0 0.00 0.00 0.00 50 1011.9
20260503191738 71 232 7.0 13.0 0.00 0.00 0.00 52 1011.9
20260503191234 71 252 8.0 13.0 0.00 0.00 0.00 51 1012.0
20260503190731 71 233 8.0 13.0 0.00 0.00 0.00 52 1012.0
20260503190229 70 234 8.0 16.0 0.00 0.00 0.00 51 1012.0
20260503185728 70 220 8.0 16.0 0.00 0.00 0.00 53 1012.1
20260503185224 71 229 7.0 14.0 0.00 0.00 0.00 51 1012.0
20260503184721 71 248 5.0 13.0 0.00 0.00 0.00 52 1011.9
20260503184221 70 236 5.0 13.0 0.00 0.00 0.00 52 1012.0
20260503183722 69 225 6.0 13.0 0.00 0.00 0.00 55 1012.0
20260503183221 69 275 7.0 14.0 0.00 0.00 0.00 54 1012.1
20260503182716 69 203 7.0 14.0 0.00 0.00 0.00 53 1012.1
20260503182215 69 265 7.0 15.0 0.00 0.00 0.00 54 1012.1
20260503181711 69 248 7.0 15.0 0.00 0.00 0.00 55 1012.1
20260503181211 68 281 6.0 13.0 0.00 0.00 0.00 56 1012.1
20260503180712 68 272 6.0 13.0 0.00 0.00 0.00 57 1012.0
20260503180438 67 246 6.0 13.0 0.00 0.00 0.00 58 1012.1
20260503175708 67 292 7.0 12.0 0.00 0.00 0.00 58 1012.1
20260503175205 66 270 8.0 17.0 0.00 0.00 0.00 57 1012.2
20260503174705 67 269 8.0 17.0 0.00 0.00 0.00 58 1012.2
20260503174200 67 220 7.0 15.0 0.00 0.00 0.00 58 1012.1
20260503173924 67 215 9.0 16.0 0.00 0.00 0.00 57 1012.1
20260503173159 67 265 9.0 16.0 0.00 0.00 0.00 56 1012.0
20260503172700 67 246 8.0 16.0 0.00 0.00 0.00 58 1011.9
20260503172200 67 236 8.0 15.0 0.00 0.00 0.00 58 1012.0
20260503171658 66 252 8.0 15.0 0.00 0.00 0.00 58 1011.9
20260503171159 66 275 8.0 17.0 0.00 0.00 0.00 58 1011.9
20260503170659 66 242 8.0 17.0 0.00 0.00 0.00 57 1011.9
20260503170159 66 235 8.0 15.0 0.00 0.00 0.00 58 1011.8
20260503150646 56 234 3.0 8.0 0.00 0.00 0.00 75 1011.0
20260503150411 56 267 1.0 8.0 0.00 0.00 0.00 75 1011.0
20260503140134 55 196 0.0 0.0 0.00 0.00 0.00 77 1010.2
20260503131352 55 196 0.0 0.0 0.00 0.00 0.00 75 1009.5
20260503130850 55 196 0.0 0.0 0.00 0.00 0.00 75 1009.5
20260503130126 55 196 0.0 0.0 0.00 0.00 0.00 75 1009.3
20260503120113 55 278 0.0 0.0 0.00 0.00 0.00 76 1009.2
20260503110557 56 278 0.0 1.0 0.00 0.00 0.00 76 1009.1
20260503090454 56 279 2.0 4.0 0.00 0.00 0.00 74 1009.4
20260503090219 56 267 2.0 4.0 0.00 0.00 0.00 74 1009.5
20260503081440 57 267 2.0 4.0 0.00 0.00 0.00 73 1009.6
20260503080940 57 265 2.0 3.0 0.00 0.00 0.00 73 1009.7
20260503080702 57 265 2.0 4.0 0.00 0.00 0.00 73 1009.8
20260503072935 57 273 2.0 6.0 0.00 0.00 0.00 74 1009.8
20260503072656 57 275 2.0 6.0 0.00 0.00 0.00 74 1009.9
20260503071931 57 271 2.0 4.0 0.00 0.00 0.00 74 1009.9
20260503071429 57 269 2.0 4.0 0.00 0.00 0.00 74 1009.9
20260503070922 57 268 2.0 4.0 0.00 0.00 0.00 73 1009.9
20260503070641 57 267 2.0 4.0 0.00 0.00 0.00 74 1009.9
20260503054908 58 269 1.0 4.0 0.00 0.00 0.00 73 1010.4
20260503054408 58 230 0.0 2.0 0.00 0.00 0.00 73 1010.4
20260503053908 58 230 0.0 3.0 0.00 0.00 0.00 73 1010.6
20260503053406 58 230 1.0 3.0 0.00 0.00 0.00 73 1010.6
20260503052906 58 230 1.0 2.0 0.00 0.00 0.00 72 1010.5
20260503052406 58 229 0.0 2.0 0.00 0.00 0.00 72 1010.6
20260503051904 58 229 1.0 3.0 0.00 0.00 0.00 72 1010.6
20260503051403 58 229 1.0 3.0 0.00 0.00 0.00 72 1010.6
20260503050858 58 230 1.0 2.0 0.00 0.00 0.00 72 1010.7
20260503050356 58 230 1.0 2.0 0.00 0.00 0.00 72 1010.6
20260503045854 58 230 1.0 4.0 0.00 0.00 0.00 71 1010.5
20260503045354 58 230 3.0 7.0 0.00 0.00 0.00 72 1010.5
20260503044852 58 232 4.0 8.0 0.00 0.00 0.00 71 1010.4
20260503044349 58 244 5.0 8.0 0.00 0.00 0.00 71 1010.3
20260503043850 59 271 5.0 10.0 0.00 0.00 0.00 71 1010.3
20260503043347 59 262 5.0 10.0 0.00 0.00 0.00 71 1010.2
20260503042846 59 288 4.0 8.0 0.00 0.00 0.00 70 1010.3
20260503042347 59 267 4.0 8.0 0.00 0.00 0.00 70 1010.3
20260503041844 59 240 4.0 9.0 0.00 0.00 0.00 70 1010.3
20260503041608 59 238 4.0 9.0 0.00 0.00 0.00 70 1010.2
20260503040843 59 234 4.0 10.0 0.00 0.00 0.00 69 1010.2
20260503040605 59 242 5.0 11.0 0.00 0.00 0.00 69 1010.2
20260503035842 59 234 6.0 11.0 0.00 0.00 0.00 69 1010.0
20260503035601 59 229 7.0 12.0 0.00 0.00 0.00 69 1010.0
20260503034836 60 290 7.0 12.0 0.00 0.00 0.00 69 1009.9